Regional Weather Roundup
Issued by NWS Kansas City/Pleasant Hill, MO

Home | Current Version | Previous Version | Text Only | Print | Product List | Glossary On
Versions: 1 2 3 4 5 6 7 8 9 10 11 12 13 14 15 16 17 18 19 20 21 22 23 24 25 26 27 28 29 30 31 32 33 34 35 36 37 38 39 40 41 42 43 44 45 46 47 48 49 50
159
ASUS43 KEAX 250410
RWREAX

WEATHER ROUNDUP FOR EASTERN KANSAS AND NORTHWEST MISSOURI
NATIONAL WEATHER SERVICE KANSAS CITY/PLEASANT HILL MO
1100 PM CDT TUE APR 24 2018

KSZ040-057-103>105-MOZ028-029-037-043-250500-
...KANSAS CITY METROPOLITAN AREA...

CITY           SKY/WX    TMP DP  RH WIND       PRES   REMARKS
K.C. INTL      CLOUDY    59  45  59 N17       30.12F
K.C. DOWNTOWN  CLOUDY    62  45  53 NW10G18   30.12S
LEES SUMMIT    CLOUDY    61  46  57 NW15      30.12S
OLATHE - IXD   CLOUDY    59  46  62 N21G30    30.14S
OLATHE - OJC   CLOUDY    60  45  57 N13G23    30.12S
LAWRENCE       CLOUDY    59  46  62 N15G28    30.13F

$$

MOZ001>008-011>017-020>025-030>033-038>040-044>046-053-054-250500-
...NORTHERN AND CENTRAL MISSOURI...

CITY           SKY/WX    TMP DP  RH WIND       PRES   REMARKS
ST. JOSEPH     CLOUDY    59  48  67 N22G29    30.15R
MOSBY          CLOUDY    61  45  55 N10G17    30.11F
WARRENSBURG    CLOUDY    63  43  48 NW14G20   30.09S
WHITEMAN AFB   NOT AVBL
CLINTON        CLOUDY    63  45  51 NW14      30.09R
SEDALIA        CLOUDY    66  36  32 W5        30.06F
WARSAW         NOT AVBL
CHILLICOTHE      N/A     65  39  38 NW6       30.09R
KIRKSVILLE     PTCLDY    59  41  51 N9        30.08R

$$

MOZ041-047>049-056>058-063>065-088>090-097-250500-
...EASTERN AND SOUTHERN MISSOURI...

CITY           SKY/WX    TMP DP  RH WIND       PRES   REMARKS
ST. LOUIS INTL PTCLDY    57  45  64 CALM      30.00S
SPIRIT OF STL  CLEAR     51  47  86 SW3       30.00S
COLUMBIA       CLOUDY    63  34  33 NW7       30.04S
JEFFERSON CITY CLOUDY    56  43  61 CALM      30.04R
ROLLA          CLEAR     56  45  66 NW5       30.05S
OSAGE BEACH    CLOUDY    59  44  57 N5        30.06S
SPRINGFIELD    PTCLDY    54  41  61 SW3       30.07S
BRANSON        CLOUDY    63  39  42 CALM      30.09S
JOPLIN         CLEAR     56  42  59 CALM      30.08F
WEST PLAINS    CLEAR     55  47  74 CALM      30.06F

$$

IAZ060-094-KSZ022-034>040-054-083-096-NEZ052-066-093-250500-
...KANSAS...SOUTHEAST NEBRASKA AND IOWA...

CITY           SKY/WX    TMP DP  RH WIND       PRES   REMARKS
TOPEKA         CLOUDY    57  48  72 NW9       30.16R
MANHATTAN      CLOUDY    53  47  79 VRB7      30.20R
EMPORIA        CLOUDY    54  47  77 NW12      30.17R
CHANUTE        CLOUDY    59  45  59 NW8       30.13R
WICHITA        CLOUDY    51  45  79 N20G30    30.20S
OMAHA          LGT RAIN  51  46  83 N12       30.21R
LINCOLN        CLOUDY    51  48  89 N10       30.22S
FALLS CITY     CLOUDY    55  47  74 N13       30.15F
LAMONI         CLOUDY    60  43  53 N9        30.12R
DES MOINES     CLOUDY    57  41  55 N16G23    30.16R

$$





USA.gov is the U.S. government's official web portal to all federal, state and local government web resources and services.